Location: Marion Hill
(40.7303°N, 80.2959°W)
Time: 07:59:21
(UTC+00:00)

Cosmos 2227 Rocket - Pass Details

Date: 29 October 2020
Orbit: 839 x 845 km, 71.0° (Epoch: 26 November)

Event Time Altitude Azimuth Distance (km) Brightness Sun altitude
Rises 23:40:55 0° 334° (NNW) 3,405 5.6 -15.8°
Reaches altitude 10° 23:43:23 10° 333° (NNW) 2,468 4.9 -16.2°
Maximum altitude 23:49:02 75° 249° (WSW) 875 2.4 -17.3°
Drops below altitude 10° 23:54:39 10° 165° (SSE) 2,456 4.5 -18.4°
Sets 23:57:05 0° 164° (SSE) 3,388 5.2 -18.8°
